Location: Béaulencourt
(50.0796°N, 2.8795°E)
Time: 06:26:46
(UTC+00:00)

Cosmos 407 Rocket - Pass Details

Date: 20 January 2026
Orbit: 738 x 782 km, 74.0° (Epoch: 18 February)

Event Time Altitude Azimuth Distance (km) Brightness Sun altitude
Rises 05:36:50 0° 200° (SSW) 3,175 6.6 -18.8°
Reaches altitude 10° 05:39:10 10° 200° (SSW) 2,260 5.8 -18.5°
Maximum altitude 05:44:18 86° 114° (ESE) 763 3.5 -17.7°
Drops below altitude 10° 05:49:32 10° 25° (NNE) 2,305 6.1 -16.8°
Sets 05:51:56 0° 25° (NNE) 3,242 6.9 -16.5°
